Year,Month,Day,Hour,Minute,Value (Times are PST for temperature in C)
2011,09,25,00,00,14.80
2011,09,25,00,01,14.80
2011,09,25,00,02,14.80
2011,09,25,00,03,14.80
2011,09,25,00,04,14.80
2011,09,25,00,05,14.80
2011,09,25,00,06,14.80
2011,09,25,00,07,14.80
2011,09,25,00,08,14.80
2011,09,25,00,09,14.80
2011,09,25,00,10,14.80
2011,09,25,00,11,14.80
2011,09,25,00,12,14.80
2011,09,25,00,13,14.80
2011,09,25,00,14,14.70
2011,09,25,00,15,14.70
2011,09,25,00,16,14.70
2011,09,25,00,17,14.70
2011,09,25,00,18,14.70
2011,09,25,00,19,14.70
2011,09,25,00,20,14.70
2011,09,25,00,21,14.70
2011,09,25,00,22,14.70
2011,09,25,00,23,14.70
2011,09,25,00,24,14.60
2011,09,25,00,25,14.60
2011,09,25,00,26,14.60
2011,09,25,00,27,14.60
2011,09,25,00,28,14.60
2011,09,25,00,29,14.60
2011,09,25,00,30,14.60
2011,09,25,00,31,14.60
2011,09,25,00,32,14.60
2011,09,25,00,33,14.70
2011,09,25,00,34,14.60
2011,09,25,00,35,14.60
2011,09,25,00,36,14.60
2011,09,25,00,37,14.60
2011,09,25,00,38,14.60
2011,09,25,00,39,14.60
2011,09,25,00,40,14.60
2011,09,25,00,41,14.60
2011,09,25,00,42,14.60
2011,09,25,00,43,14.60
2011,09,25,00,44,14.60
2011,09,25,00,45,14.60
2011,09,25,00,46,14.60
2011,09,25,00,47,14.60
2011,09,25,00,48,14.60
2011,09,25,00,49,14.70
2011,09,25,00,50,14.70
2011,09,25,00,51,14.70
2011,09,25,00,52,14.70
2011,09,25,00,53,14.70
2011,09,25,00,54,14.70
2011,09,25,00,55,14.70
2011,09,25,00,56,14.70
2011,09,25,00,57,14.70
2011,09,25,00,58,14.70
2011,09,25,00,59,14.70
2011,09,25,01,00,14.70
2011,09,25,01,01,14.70
2011,09,25,01,02,14.70
2011,09,25,01,03,14.70
2011,09,25,01,04,14.70
2011,09,25,01,05,14.70
2011,09,25,01,06,14.60
2011,09,25,01,07,14.60
2011,09,25,01,08,14.70
2011,09,25,01,09,14.70
2011,09,25,01,10,14.70
2011,09,25,01,11,14.70
2011,09,25,01,12,14.60
2011,09,25,01,13,14.60
2011,09,25,01,14,14.60
2011,09,25,01,15,14.60
2011,09,25,01,16,14.60
2011,09,25,01,17,14.60
2011,09,25,01,18,14.60
2011,09,25,01,19,14.60
2011,09,25,01,20,14.60
2011,09,25,01,21,14.60
2011,09,25,01,22,14.60
2011,09,25,01,23,14.60
2011,09,25,01,24,14.60
2011,09,25,01,25,14.60
2011,09,25,01,26,14.60
2011,09,25,01,27,14.60
2011,09,25,01,28,14.50
2011,09,25,01,29,14.50
2011,09,25,01,30,14.50
2011,09,25,01,31,14.50
2011,09,25,01,32,14.50
2011,09,25,01,33,14.50
2011,09,25,01,34,14.50
2011,09,25,01,35,14.40
2011,09,25,01,36,14.40
2011,09,25,01,37,14.40
2011,09,25,01,38,14.40
2011,09,25,01,39,14.40
2011,09,25,01,40,14.40
2011,09,25,01,41,14.40
2011,09,25,01,42,14.40
2011,09,25,01,43,14.40
2011,09,25,01,44,14.40
2011,09,25,01,45,14.40
2011,09,25,01,46,14.40
2011,09,25,01,47,14.40
2011,09,25,01,48,14.40
2011,09,25,01,49,14.40
2011,09,25,01,50,14.40
2011,09,25,01,51,14.40
2011,09,25,01,52,14.40
2011,09,25,01,53,14.40
2011,09,25,01,54,14.40
2011,09,25,01,55,14.40
2011,09,25,01,56,14.40
2011,09,25,01,57,14.40
2011,09,25,01,58,14.40
2011,09,25,01,59,14.40
2011,09,25,02,00,14.40
2011,09,25,02,01,14.40
2011,09,25,02,02,14.40
2011,09,25,02,03,14.40
2011,09,25,02,04,14.50
2011,09,25,02,05,14.50
2011,09,25,02,06,14.50
2011,09,25,02,07,14.50
2011,09,25,02,08,14.50
2011,09,25,02,09,14.50
2011,09,25,02,10,14.50
2011,09,25,02,11,14.40
2011,09,25,02,12,14.40
2011,09,25,02,13,14.50
2011,09,25,02,14,14.50
2011,09,25,02,15,14.50
2011,09,25,02,16,14.50
2011,09,25,02,17,14.50
2011,09,25,02,18,14.50
2011,09,25,02,19,14.50
2011,09,25,02,20,14.50
2011,09,25,02,21,14.50
2011,09,25,02,22,14.50
2011,09,25,02,23,14.50
2011,09,25,02,24,14.50
2011,09,25,02,25,14.50
2011,09,25,02,26,14.50
2011,09,25,02,27,14.50
2011,09,25,02,28,14.40
2011,09,25,02,29,14.40
2011,09,25,02,30,14.40
2011,09,25,02,31,14.50
2011,09,25,02,32,14.60
2011,09,25,02,33,14.80
2011,09,25,02,34,15.00
2011,09,25,02,35,15.00
2011,09,25,02,36,15.30
2011,09,25,02,37,15.50
2011,09,25,02,38,15.60
2011,09,25,02,39,15.80
2011,09,25,02,40,15.90
2011,09,25,02,41,16.10
2011,09,25,02,42,16.20
2011,09,25,02,43,16.30
2011,09,25,02,44,16.40
2011,09,25,02,45,16.40
2011,09,25,02,46,16.40
2011,09,25,02,47,16.30
2011,09,25,02,48,16.30
2011,09,25,02,49,16.30
2011,09,25,02,50,16.30
2011,09,25,02,51,16.20
2011,09,25,02,52,16.10
2011,09,25,02,53,16.00
2011,09,25,02,54,16.00
2011,09,25,02,55,15.90
2011,09,25,02,56,15.80
2011,09,25,02,57,15.70
2011,09,25,02,58,15.60
2011,09,25,02,59,15.60
2011,09,25,03,00,15.50
2011,09,25,03,01,15.40
2011,09,25,03,02,15.30
2011,09,25,03,03,15.30
2011,09,25,03,04,15.10
2011,09,25,03,05,15.00
2011,09,25,03,06,15.00
2011,09,25,03,07,15.00
2011,09,25,03,08,15.00
2011,09,25,03,09,15.00
2011,09,25,03,10,14.90
2011,09,25,03,11,14.80
2011,09,25,03,12,14.70
2011,09,25,03,13,14.70
2011,09,25,03,14,14.70
2011,09,25,03,15,14.60
2011,09,25,03,16,14.60
2011,09,25,03,17,14.60
2011,09,25,03,18,14.50
2011,09,25,03,19,14.50
2011,09,25,03,20,14.50
2011,09,25,03,21,14.40
2011,09,25,03,22,14.40
2011,09,25,03,23,14.40
2011,09,25,03,24,14.30
2011,09,25,03,25,14.30
2011,09,25,03,26,14.30
2011,09,25,03,27,14.30
2011,09,25,03,28,14.30
2011,09,25,03,29,14.20
2011,09,25,03,30,14.20
2011,09,25,03,31,14.20
2011,09,25,03,32,14.20
2011,09,25,03,33,14.20
2011,09,25,03,34,14.20
2011,09,25,03,35,14.20
2011,09,25,03,36,14.20
2011,09,25,03,37,14.20
2011,09,25,03,38,14.30
2011,09,25,03,39,14.30
2011,09,25,03,40,14.30
2011,09,25,03,41,14.30
2011,09,25,03,42,14.30
2011,09,25,03,43,14.30
2011,09,25,03,44,14.30
2011,09,25,03,45,14.30
2011,09,25,03,46,14.30
2011,09,25,03,47,14.30
2011,09,25,03,48,14.30
2011,09,25,03,49,14.30
2011,09,25,03,50,14.30
2011,09,25,03,51,14.20
2011,09,25,03,52,14.20
2011,09,25,03,53,14.20
2011,09,25,03,54,14.10
2011,09,25,03,55,14.10
2011,09,25,03,56,14.10
2011,09,25,03,57,14.10
2011,09,25,03,58,14.10
2011,09,25,03,59,14.00
2011,09,25,04,00,14.00
2011,09,25,04,01,13.90
2011,09,25,04,02,13.90
2011,09,25,04,03,13.90
2011,09,25,04,04,13.90
2011,09,25,04,05,13.90
2011,09,25,04,06,13.80
2011,09,25,04,07,13.80
2011,09,25,04,08,13.80
2011,09,25,04,09,13.80
2011,09,25,04,10,13.80
2011,09,25,04,11,13.70
2011,09,25,04,12,13.70
2011,09,25,04,13,13.70
2011,09,25,04,14,13.70
2011,09,25,04,15,13.70
2011,09,25,04,16,13.70
2011,09,25,04,17,13.70
2011,09,25,04,18,13.70
2011,09,25,04,19,13.70
2011,09,25,04,20,13.70
2011,09,25,04,21,13.70
2011,09,25,04,22,13.70
2011,09,25,04,23,13.70
2011,09,25,04,24,13.70
2011,09,25,04,25,13.70
2011,09,25,04,26,13.70
2011,09,25,04,27,13.70
2011,09,25,04,28,13.70
2011,09,25,04,29,13.70
2011,09,25,04,30,13.70
2011,09,25,04,31,13.70
2011,09,25,04,32,13.70
2011,09,25,04,33,13.80
2011,09,25,04,34,13.80
2011,09,25,04,35,13.80
2011,09,25,04,36,13.80
2011,09,25,04,37,13.80
2011,09,25,04,38,13.80
2011,09,25,04,39,13.80
2011,09,25,04,40,13.80
2011,09,25,04,41,13.80
2011,09,25,04,42,13.80
2011,09,25,04,43,13.80
2011,09,25,04,44,13.80
2011,09,25,04,45,13.80
2011,09,25,04,46,13.80
2011,09,25,04,47,13.80
2011,09,25,04,48,13.80
2011,09,25,04,49,13.80
2011,09,25,04,50,13.80
2011,09,25,04,51,13.80
2011,09,25,04,52,13.80
2011,09,25,04,53,13.80
2011,09,25,04,54,13.80
2011,09,25,04,55,13.80
2011,09,25,04,56,13.80
2011,09,25,04,57,13.80
2011,09,25,04,58,13.80
2011,09,25,04,59,13.80
2011,09,25,05,00,13.80
2011,09,25,05,01,13.80
2011,09,25,05,02,13.80
2011,09,25,05,03,13.80
2011,09,25,05,04,13.70
2011,09,25,05,05,13.70
2011,09,25,05,06,13.70
2011,09,25,05,07,13.70
2011,09,25,05,08,13.70
2011,09,25,05,09,13.60
2011,09,25,05,10,13.60
2011,09,25,05,11,13.60
2011,09,25,05,12,13.60
2011,09,25,05,13,13.60
2011,09,25,05,14,13.60
2011,09,25,05,15,13.60
2011,09,25,05,16,13.60
2011,09,25,05,17,13.60
2011,09,25,05,18,13.60
2011,09,25,05,19,13.60
2011,09,25,05,20,13.60
2011,09,25,05,21,13.60
2011,09,25,05,22,13.60
2011,09,25,05,23,13.60
2011,09,25,05,24,13.60
2011,09,25,05,25,13.60
2011,09,25,05,26,13.60
2011,09,25,05,27,13.60
2011,09,25,05,28,13.50
2011,09,25,05,29,13.50
2011,09,25,05,30,13.50
2011,09,25,05,31,13.40
2011,09,25,05,32,13.40
2011,09,25,05,33,13.40
2011,09,25,05,34,13.40
2011,09,25,05,35,13.40
2011,09,25,05,36,13.30
2011,09,25,05,37,13.30
2011,09,25,05,38,13.30
2011,09,25,05,39,13.30
2011,09,25,05,40,13.30
2011,09,25,05,41,13.30
2011,09,25,05,42,13.30
2011,09,25,05,43,13.20
2011,09,25,05,44,13.20
2011,09,25,05,45,13.20
2011,09,25,05,46,13.20
2011,09,25,05,47,13.20
2011,09,25,05,48,13.20
2011,09,25,05,49,13.10
2011,09,25,05,50,13.10
2011,09,25,05,51,13.10
2011,09,25,05,52,13.10
2011,09,25,05,53,13.10
2011,09,25,05,54,13.00
2011,09,25,05,55,13.00
2011,09,25,05,56,13.00
2011,09,25,05,57,12.90
2011,09,25,05,58,12.90
2011,09,25,05,59,12.90
2011,09,25,06,00,12.90
2011,09,25,06,01,12.90
2011,09,25,06,02,12.90
2011,09,25,06,03,12.80
2011,09,25,06,04,12.80
2011,09,25,06,05,12.80
2011,09,25,06,06,12.80
2011,09,25,06,07,12.70
2011,09,25,06,08,12.70
2011,09,25,06,09,12.70
2011,09,25,06,10,12.70
2011,09,25,06,11,12.60
2011,09,25,06,12,12.60
2011,09,25,06,13,12.60
2011,09,25,06,14,12.50
2011,09,25,06,15,12.40
2011,09,25,06,16,12.40
2011,09,25,06,17,12.30
2011,09,25,06,18,12.30
2011,09,25,06,19,12.20
2011,09,25,06,20,12.10
2011,09,25,06,21,12.10
2011,09,25,06,22,12.00
2011,09,25,06,23,12.00
2011,09,25,06,24,12.00
2011,09,25,06,25,11.90
2011,09,25,06,26,11.90
2011,09,25,06,27,11.80
2011,09,25,06,28,11.80
2011,09,25,06,29,11.80
2011,09,25,06,30,11.80
2011,09,25,06,31,11.80
2011,09,25,06,32,11.70
2011,09,25,06,33,11.70
2011,09,25,06,34,11.70
2011,09,25,06,35,11.70
2011,09,25,06,36,11.70
2011,09,25,06,37,11.60
2011,09,25,06,38,11.60
2011,09,25,06,39,11.60
2011,09,25,06,40,11.60
2011,09,25,06,41,11.50
2011,09,25,06,42,11.50
2011,09,25,06,43,11.50
2011,09,25,06,44,11.40
2011,09,25,06,45,11.40
2011,09,25,06,46,11.40
2011,09,25,06,47,11.40
2011,09,25,06,48,11.40
2011,09,25,06,49,11.40
2011,09,25,06,50,11.40
2011,09,25,06,51,11.30
2011,09,25,06,52,11.30
2011,09,25,06,53,11.30
2011,09,25,06,54,11.30
2011,09,25,06,55,11.30
2011,09,25,06,56,11.30
2011,09,25,06,57,11.30
2011,09,25,06,58,11.30
2011,09,25,06,59,11.30
2011,09,25,07,00,11.30
2011,09,25,07,01,11.30
2011,09,25,07,02,11.30
2011,09,25,07,03,11.30
2011,09,25,07,04,11.30
2011,09,25,07,05,11.30
2011,09,25,07,06,11.30
2011,09,25,07,07,11.40
2011,09,25,07,08,11.40
2011,09,25,07,09,11.40
2011,09,25,07,10,11.40
2011,09,25,07,11,11.40
2011,09,25,07,12,11.40
2011,09,25,07,13,11.40
2011,09,25,07,14,11.40
2011,09,25,07,15,11.40
2011,09,25,07,16,11.40
2011,09,25,07,17,11.40
2011,09,25,07,18,11.40
2011,09,25,07,19,11.40
2011,09,25,07,20,11.40
2011,09,25,07,21,11.40
2011,09,25,07,22,11.40
2011,09,25,07,23,11.40
2011,09,25,07,24,11.40
2011,09,25,07,25,11.40
2011,09,25,07,26,11.40
2011,09,25,07,27,11.30
2011,09,25,07,28,11.30
2011,09,25,07,29,11.30
2011,09,25,07,30,11.30
2011,09,25,07,31,11.30
2011,09,25,07,32,11.30
2011,09,25,07,33,11.30
2011,09,25,07,34,11.20
2011,09,25,07,35,11.20
2011,09,25,07,36,11.20
2011,09,25,07,37,11.20
2011,09,25,07,38,11.20
2011,09,25,07,39,11.20
2011,09,25,07,40,11.20
2011,09,25,07,41,11.20
2011,09,25,07,42,11.20
2011,09,25,07,43,11.20
2011,09,25,07,44,11.20
2011,09,25,07,45,11.20
2011,09,25,07,46,11.20
2011,09,25,07,47,11.20
2011,09,25,07,48,11.20
2011,09,25,07,49,11.20
2011,09,25,07,50,11.20
2011,09,25,07,51,11.20
2011,09,25,07,52,11.20
2011,09,25,07,53,11.20
2011,09,25,07,54,11.20
2011,09,25,07,55,11.20
2011,09,25,07,56,11.20
2011,09,25,07,57,11.20
2011,09,25,07,58,11.20
2011,09,25,07,59,11.20
2011,09,25,08,00,11.20
2011,09,25,08,01,11.20
2011,09,25,08,02,11.20
2011,09,25,08,03,11.20
2011,09,25,08,04,11.20
2011,09,25,08,05,11.20
2011,09,25,08,06,11.20
2011,09,25,08,07,11.20
2011,09,25,08,08,11.20
2011,09,25,08,09,11.20
2011,09,25,08,10,11.20
2011,09,25,08,11,11.20
2011,09,25,08,12,11.20
2011,09,25,08,13,11.20
2011,09,25,08,14,11.20
2011,09,25,08,15,11.20
2011,09,25,08,16,11.30
2011,09,25,08,17,11.30
2011,09,25,08,18,11.30
2011,09,25,08,19,11.30
2011,09,25,08,20,11.30
2011,09,25,08,21,11.30
2011,09,25,08,22,11.30
2011,09,25,08,23,11.30
2011,09,25,08,24,11.30
2011,09,25,08,25,11.40
2011,09,25,08,26,11.40
2011,09,25,08,27,11.40
2011,09,25,08,28,11.40
2011,09,25,08,29,11.50
2011,09,25,08,30,11.50
2011,09,25,08,31,11.50
2011,09,25,08,32,11.60
2011,09,25,08,33,11.60
2011,09,25,08,34,11.60
2011,09,25,08,35,11.60
2011,09,25,08,36,11.60
2011,09,25,08,37,11.60
2011,09,25,08,38,11.70
2011,09,25,08,39,11.70
2011,09,25,08,40,11.70
2011,09,25,08,41,11.70
2011,09,25,08,42,11.70
2011,09,25,08,43,11.80
2011,09,25,08,44,11.80
2011,09,25,08,45,11.80
2011,09,25,08,46,11.80
2011,09,25,08,47,11.80
2011,09,25,08,48,11.90
2011,09,25,08,49,11.90
2011,09,25,08,50,11.90
2011,09,25,08,51,11.90
2011,09,25,08,52,11.90
2011,09,25,08,53,11.90
2011,09,25,08,54,11.90
2011,09,25,08,55,12.00
2011,09,25,08,56,12.00
2011,09,25,08,57,12.00
2011,09,25,08,58,12.10
2011,09,25,08,59,12.10
2011,09,25,09,00,12.10
2011,09,25,09,01,12.10
2011,09,25,09,02,12.10
2011,09,25,09,03,12.20
2011,09,25,09,04,12.20
2011,09,25,09,05,12.20
2011,09,25,09,06,12.20
2011,09,25,09,07,12.30
2011,09,25,09,08,12.30
2011,09,25,09,09,12.30
2011,09,25,09,10,12.40
2011,09,25,09,11,12.40
2011,09,25,09,12,12.40
2011,09,25,09,13,12.50
2011,09,25,09,14,12.50
2011,09,25,09,15,12.50
2011,09,25,09,16,12.50
2011,09,25,09,17,12.50
2011,09,25,09,18,12.50
2011,09,25,09,19,12.50
2011,09,25,09,20,12.50
2011,09,25,09,21,12.50
2011,09,25,09,22,12.50
2011,09,25,09,23,12.50
2011,09,25,09,24,12.50
2011,09,25,09,25,12.60
2011,09,25,09,26,12.60
2011,09,25,09,27,12.60
2011,09,25,09,28,12.60
2011,09,25,09,29,12.60
2011,09,25,09,30,12.70
2011,09,25,09,31,12.70
2011,09,25,09,32,12.70
2011,09,25,09,33,12.70
2011,09,25,09,34,12.70
2011,09,25,09,35,12.80
2011,09,25,09,36,12.80
2011,09,25,09,37,12.80
2011,09,25,09,38,12.80
2011,09,25,09,39,12.80
2011,09,25,09,40,12.80
2011,09,25,09,41,12.80
2011,09,25,09,42,12.90
2011,09,25,09,43,12.90
2011,09,25,09,44,12.90
2011,09,25,09,45,12.90
2011,09,25,09,46,12.90
2011,09,25,09,47,12.90
2011,09,25,09,48,12.90
2011,09,25,09,49,12.90
2011,09,25,09,50,12.90
2011,09,25,09,51,12.90
2011,09,25,09,52,13.00
2011,09,25,09,53,13.00
2011,09,25,09,54,13.00
2011,09,25,09,55,13.00
2011,09,25,09,56,13.00
2011,09,25,09,57,13.00
2011,09,25,09,58,13.10
2011,09,25,09,59,13.10
2011,09,25,10,00,13.10
2011,09,25,10,01,13.10
2011,09,25,10,02,13.10
2011,09,25,10,03,13.10
2011,09,25,10,04,13.10
2011,09,25,10,05,13.10
2011,09,25,10,06,13.10
2011,09,25,10,07,13.10
2011,09,25,10,08,13.10
2011,09,25,10,09,13.10
2011,09,25,10,10,13.10
2011,09,25,10,11,13.10
2011,09,25,10,12,13.10
2011,09,25,10,13,13.10
2011,09,25,10,14,13.10
2011,09,25,10,15,13.10
2011,09,25,10,16,13.20
2011,09,25,10,17,13.20
2011,09,25,10,18,13.20
2011,09,25,10,19,13.20
2011,09,25,10,20,13.20
2011,09,25,10,21,13.20
2011,09,25,10,22,13.20
2011,09,25,10,23,13.20
2011,09,25,10,24,13.20
2011,09,25,10,25,13.20
2011,09,25,10,26,13.20
2011,09,25,10,27,13.20
2011,09,25,10,28,13.20
2011,09,25,10,29,13.20
2011,09,25,10,30,13.20
2011,09,25,10,31,13.20
2011,09,25,10,32,13.20
2011,09,25,10,33,13.20
2011,09,25,10,34,13.20
2011,09,25,10,35,13.20
2011,09,25,10,36,13.20
2011,09,25,10,37,13.20
2011,09,25,10,38,13.20
2011,09,25,10,39,13.20
2011,09,25,10,40,13.20
2011,09,25,10,41,13.20
2011,09,25,10,42,13.20
2011,09,25,10,43,13.20
2011,09,25,10,44,13.20
2011,09,25,10,45,13.30
2011,09,25,10,46,13.30
2011,09,25,10,47,13.30
2011,09,25,10,48,13.30
2011,09,25,10,49,13.30
2011,09,25,10,50,13.30
2011,09,25,10,51,13.30
2011,09,25,10,52,13.30
2011,09,25,10,53,13.40
2011,09,25,10,54,13.40
2011,09,25,10,55,13.40
2011,09,25,10,56,13.40
2011,09,25,10,57,13.40
2011,09,25,10,58,13.40
2011,09,25,10,59,13.40
2011,09,25,11,00,13.40
2011,09,25,11,01,13.40
2011,09,25,11,02,13.40
2011,09,25,11,03,13.40
2011,09,25,11,04,13.40
2011,09,25,11,05,13.40
2011,09,25,11,06,13.50
2011,09,25,11,07,13.50
2011,09,25,11,08,13.50
2011,09,25,11,09,13.50
2011,09,25,11,10,13.50
2011,09,25,11,11,13.50
2011,09,25,11,12,13.50
2011,09,25,11,13,13.50
2011,09,25,11,14,13.50
2011,09,25,11,15,13.50
2011,09,25,11,16,13.50
2011,09,25,11,17,13.60
2011,09,25,11,18,13.60
2011,09,25,11,19,13.60
2011,09,25,11,20,13.60
2011,09,25,11,21,13.60
2011,09,25,11,22,13.60
2011,09,25,11,23,13.60
2011,09,25,11,24,13.60
2011,09,25,11,25,13.60
2011,09,25,11,26,13.70
2011,09,25,11,27,13.70
2011,09,25,11,28,13.70
2011,09,25,11,29,13.70
2011,09,25,11,30,13.80
2011,09,25,11,31,13.80
2011,09,25,11,32,13.80
2011,09,25,11,33,13.90
2011,09,25,11,34,13.90
2011,09,25,11,35,14.00
2011,09,25,11,36,14.00
2011,09,25,11,37,14.10
2011,09,25,11,38,14.10
2011,09,25,11,39,14.20
2011,09,25,11,40,14.30
2011,09,25,11,41,14.30
2011,09,25,11,42,14.40
2011,09,25,11,43,14.50
2011,09,25,11,44,14.60
2011,09,25,11,45,14.60
2011,09,25,11,46,14.70
2011,09,25,11,47,14.80
2011,09,25,11,48,14.80
2011,09,25,11,49,14.80
2011,09,25,11,50,14.80
2011,09,25,11,51,14.90
2011,09,25,11,52,15.00
2011,09,25,11,53,15.00
2011,09,25,11,54,15.00
2011,09,25,11,55,15.00
2011,09,25,11,56,15.00
2011,09,25,11,57,15.00
2011,09,25,11,58,15.10
2011,09,25,11,59,15.20
2011,09,25,12,00,15.20
2011,09,25,12,01,15.20
2011,09,25,12,02,15.30
2011,09,25,12,03,15.30
2011,09,25,12,04,15.40
2011,09,25,12,05,15.40
2011,09,25,12,06,15.40
2011,09,25,12,07,15.50
2011,09,25,12,08,15.50
2011,09,25,12,09,15.50
2011,09,25,12,10,15.50
2011,09,25,12,11,15.50
2011,09,25,12,12,15.50
2011,09,25,12,13,15.50
2011,09,25,12,14,15.60
2011,09,25,12,15,15.60
2011,09,25,12,16,15.60
2011,09,25,12,17,15.60
2011,09,25,12,18,15.60
2011,09,25,12,19,15.60
2011,09,25,12,20,15.60
2011,09,25,12,21,15.60
2011,09,25,12,22,15.60
2011,09,25,12,23,15.60
2011,09,25,12,24,15.60
2011,09,25,12,25,15.60
2011,09,25,12,26,15.50
2011,09,25,12,27,15.50
2011,09,25,12,28,15.50
2011,09,25,12,29,15.50
2011,09,25,12,30,15.40
2011,09,25,12,31,15.40
2011,09,25,12,32,15.40
2011,09,25,12,33,15.30
2011,09,25,12,34,15.30
2011,09,25,12,35,15.20
2011,09,25,12,36,15.10
2011,09,25,12,37,15.00
2011,09,25,12,38,15.00
2011,09,25,12,39,15.00
2011,09,25,12,40,15.00
2011,09,25,12,41,14.80
2011,09,25,12,42,14.70
2011,09,25,12,43,14.60
2011,09,25,12,44,14.50
2011,09,25,12,45,14.50
2011,09,25,12,46,14.40
2011,09,25,12,47,14.40
2011,09,25,12,48,14.30
2011,09,25,12,49,14.30
2011,09,25,12,50,14.30
2011,09,25,12,51,14.30
2011,09,25,12,52,14.30
2011,09,25,12,53,14.20
2011,09,25,12,54,14.20
2011,09,25,12,55,14.20
2011,09,25,12,56,14.20
2011,09,25,12,57,14.30
2011,09,25,12,58,14.30
2011,09,25,12,59,14.30
2011,09,25,13,00,14.30
2011,09,25,13,01,14.40
2011,09,25,13,02,14.40
2011,09,25,13,03,14.50
2011,09,25,13,04,14.50
2011,09,25,13,05,14.60
2011,09,25,13,06,14.60
2011,09,25,13,07,14.60
2011,09,25,13,08,14.70
2011,09,25,13,09,14.70
2011,09,25,13,10,14.70
2011,09,25,13,11,14.70
2011,09,25,13,12,14.70
2011,09,25,13,13,14.70
2011,09,25,13,14,14.70
2011,09,25,13,15,14.70
2011,09,25,13,16,14.70
2011,09,25,13,17,14.70
2011,09,25,13,18,14.70
2011,09,25,13,19,14.70
2011,09,25,13,20,14.70
2011,09,25,13,21,14.70
2011,09,25,13,22,14.60
2011,09,25,13,23,14.60
2011,09,25,13,24,14.60
2011,09,25,13,25,14.50
2011,09,25,13,26,14.40
2011,09,25,13,27,14.40
2011,09,25,13,28,14.30
2011,09,25,13,29,14.30
2011,09,25,13,30,14.20
2011,09,25,13,31,14.10
2011,09,25,13,32,14.10
2011,09,25,13,33,14.00
2011,09,25,13,34,13.90
2011,09,25,13,35,13.80
2011,09,25,13,36,13.80
2011,09,25,13,37,13.70
2011,09,25,13,38,13.70
2011,09,25,13,39,13.70
2011,09,25,13,40,13.70
2011,09,25,13,41,13.70
2011,09,25,13,42,13.70
2011,09,25,13,43,13.70
2011,09,25,13,44,13.60
2011,09,25,13,45,13.60
2011,09,25,13,46,13.60
2011,09,25,13,47,13.60
2011,09,25,13,48,13.60
2011,09,25,13,49,13.60
2011,09,25,13,50,13.70
2011,09,25,13,51,13.70
2011,09,25,13,52,13.70
2011,09,25,13,53,13.70
2011,09,25,13,54,13.70
2011,09,25,13,55,13.70
2011,09,25,13,56,13.70
2011,09,25,13,57,13.80
2011,09,25,13,58,13.80
2011,09,25,13,59,13.80
2011,09,25,14,00,13.80
2011,09,25,14,01,13.80
2011,09,25,14,02,13.80
2011,09,25,14,03,13.90
2011,09,25,14,04,14.00
2011,09,25,14,05,14.00
2011,09,25,14,06,14.10
2011,09,25,14,07,14.10
2011,09,25,14,08,14.10
2011,09,25,14,09,14.20
2011,09,25,14,10,14.20
2011,09,25,14,11,14.20
2011,09,25,14,12,14.20
2011,09,25,14,13,14.30
2011,09,25,14,14,14.30
2011,09,25,14,15,14.30
2011,09,25,14,16,14.40
2011,09,25,14,17,14.50
2011,09,25,14,18,14.50
2011,09,25,14,19,14.50
2011,09,25,14,20,14.60
2011,09,25,14,21,14.60
2011,09,25,14,22,14.60
2011,09,25,14,23,14.60
2011,09,25,14,24,14.70
2011,09,25,14,25,14.70
2011,09,25,14,26,14.70
2011,09,25,14,27,14.80
2011,09,25,14,28,14.80
2011,09,25,14,29,14.80
2011,09,25,14,30,14.80
2011,09,25,14,31,14.90
2011,09,25,14,32,14.90
2011,09,25,14,33,14.90
2011,09,25,14,34,14.90
2011,09,25,14,35,15.00
2011,09,25,14,36,15.00
2011,09,25,14,37,15.00
2011,09,25,14,38,15.00
2011,09,25,14,39,15.00
2011,09,25,14,40,15.00
2011,09,25,14,41,15.00
2011,09,25,14,42,15.00
2011,09,25,14,43,15.00
2011,09,25,14,44,15.10
2011,09,25,14,45,15.20
2011,09,25,14,46,15.20
2011,09,25,14,47,15.20
2011,09,25,14,48,15.20
2011,09,25,14,49,15.20
2011,09,25,14,50,15.20
2011,09,25,14,51,15.20
2011,09,25,14,52,15.10
2011,09,25,14,53,15.10
2011,09,25,14,54,15.10
2011,09,25,14,55,15.10
2011,09,25,14,56,15.10
2011,09,25,14,57,15.10
2011,09,25,14,58,15.10
2011,09,25,14,59,15.10
2011,09,25,15,00,15.10
2011,09,25,15,01,15.00
2011,09,25,15,02,15.00
2011,09,25,15,03,15.00
2011,09,25,15,04,15.10
2011,09,25,15,05,15.10
2011,09,25,15,06,15.20
2011,09,25,15,07,15.20
2011,09,25,15,08,15.20
2011,09,25,15,09,15.20
2011,09,25,15,10,15.30
2011,09,25,15,11,15.30
2011,09,25,15,12,15.30
2011,09,25,15,13,15.40
2011,09,25,15,14,15.30
2011,09,25,15,15,15.30
2011,09,25,15,16,15.30
2011,09,25,15,17,15.30
2011,09,25,15,18,15.20
2011,09,25,15,19,15.30
2011,09,25,15,20,15.30
2011,09,25,15,21,15.30
2011,09,25,15,22,15.30
2011,09,25,15,23,15.30
2011,09,25,15,24,15.20
2011,09,25,15,25,15.10
2011,09,25,15,26,15.10
2011,09,25,15,27,15.00
2011,09,25,15,28,15.00
2011,09,25,15,29,15.00
2011,09,25,15,30,15.00
2011,09,25,15,31,15.00
2011,09,25,15,32,15.00
2011,09,25,15,33,15.00
2011,09,25,15,34,15.00
2011,09,25,15,35,15.00
2011,09,25,15,36,15.00
2011,09,25,15,37,15.00
2011,09,25,15,38,14.90
2011,09,25,15,39,14.90
2011,09,25,15,40,14.90
2011,09,25,15,41,14.90
2011,09,25,15,42,14.90
2011,09,25,15,43,14.90
2011,09,25,15,44,14.90
2011,09,25,15,45,14.80
2011,09,25,15,46,14.80
2011,09,25,15,47,14.80
2011,09,25,15,48,14.80
2011,09,25,15,49,14.80
2011,09,25,15,50,14.80
2011,09,25,15,51,14.80
2011,09,25,15,52,14.80
2011,09,25,15,53,14.70
2011,09,25,15,54,14.70
2011,09,25,15,55,14.70
2011,09,25,15,56,14.70
2011,09,25,15,57,14.70
2011,09,25,15,58,14.70
2011,09,25,15,59,14.60
2011,09,25,16,00,14.60
2011,09,25,16,01,14.60
2011,09,25,16,02,14.60
2011,09,25,16,03,14.60
2011,09,25,16,04,14.60
2011,09,25,16,05,14.60
2011,09,25,16,06,14.60
2011,09,25,16,07,14.60
2011,09,25,16,08,14.70
2011,09,25,16,09,14.70
2011,09,25,16,10,14.80
2011,09,25,16,11,14.80
2011,09,25,16,12,15.00
2011,09,25,16,13,15.00
2011,09,25,16,14,15.00
2011,09,25,16,15,15.00
2011,09,25,16,16,15.00
2011,09,25,16,17,15.20
2011,09,25,16,18,15.30
2011,09,25,16,19,15.30
2011,09,25,16,20,15.40
2011,09,25,16,21,15.40
2011,09,25,16,22,15.50
2011,09,25,16,23,15.50
2011,09,25,16,24,15.60
2011,09,25,16,25,15.60
2011,09,25,16,26,15.70
2011,09,25,16,27,15.80
2011,09,25,16,28,15.90
2011,09,25,16,29,16.00
2011,09,25,16,30,16.10
2011,09,25,16,31,16.10
2011,09,25,16,32,16.10
2011,09,25,16,33,16.10
2011,09,25,16,34,16.10
2011,09,25,16,35,16.10
2011,09,25,16,36,16.00
2011,09,25,16,37,16.00
2011,09,25,16,38,16.00
2011,09,25,16,39,15.90
2011,09,25,16,40,15.90
2011,09,25,16,41,15.80
2011,09,25,16,42,15.80
2011,09,25,16,43,15.80
2011,09,25,16,44,15.70
2011,09,25,16,45,15.70
2011,09,25,16,46,15.70
2011,09,25,16,47,15.70
2011,09,25,16,48,15.60
2011,09,25,16,49,15.60
2011,09,25,16,50,15.60
2011,09,25,16,51,15.50
2011,09,25,16,52,15.60
2011,09,25,16,53,15.60
2011,09,25,16,54,15.50
2011,09,25,16,55,15.50
2011,09,25,16,56,15.50
2011,09,25,16,57,15.60
2011,09,25,16,58,15.60
2011,09,25,16,59,15.60
2011,09,25,17,00,15.60
2011,09,25,17,01,15.70
2011,09,25,17,02,15.70
2011,09,25,17,03,15.70
2011,09,25,17,04,15.70
2011,09,25,17,05,15.70
2011,09,25,17,06,15.70
2011,09,25,17,07,15.80
2011,09,25,17,08,15.80
2011,09,25,17,09,15.80
2011,09,25,17,10,15.70
2011,09,25,17,11,15.70
2011,09,25,17,12,15.70
2011,09,25,17,13,15.60
2011,09,25,17,14,15.60
2011,09,25,17,15,15.60
2011,09,25,17,16,15.50
2011,09,25,17,17,15.50
2011,09,25,17,18,15.40
2011,09,25,17,19,15.40